Broken Bow, NE

4:01 PM CDT on July 22, 2017 (GMT -0500)
Broken Bow Municipal

Weather History for KBBW - November, 2013

Change the Weather History Date:

Friday, November 29, 2013

  Actual Average Record
Temperature  
Mean Temperature 29 °F 29 °F  
Max Temperature 42 °F 42 °F 73 °F (2014)
Min Temperature 16 °F 17 °F -12 °F (1976)
Degree Days  
Heating Degree Days 36 36  
Month to date heating degree days 880 839  
Cooling Degree Days 0 0  
Month to date cooling degree days 0 0  
Year to date cooling degree days 814 768  
Moisture  
Dew Point 21 °F    
Average Humidity 76    
Maximum Humidity 92    
Minimum Humidity 59    
Precipitation  
Precipitation 0.00 in 0.03 in 0.34 in (1908)
Sea Level Pressure  
Sea Level Pressure 30.26 in    
Wind  
Wind Speed 8 mph (South)    
Max Wind Speed 23 mph    
Max Gust Speed 40 mph    
Visibility 9 miles    
Events      
T = Trace of Precipitation, MM = Missing Value Source: NWS Daily Summary

Daily Weather History Graph

Daily Weather History Graph

Search for Another Location

Airport or City:

Trip Planner

Search our weather history database for the weather conditions in past years. The results will help you decide how hot, cold, wet, or windy it might be!

Date:

Astronomy

Nov. 29, 2013 Rise Set
Actual Time 7:43 AM CST 5:10 PM CST
Civil Twilight 7:12 AM CST 5:40 PM CST
Nautical Twilight 6:38 AM CST 6:15 PM CST
Astronomical Twilight 6:05 AM CST 6:48 PM CST
Moon 3:48 AM CST (11/29) 2:57 PM CST (11/29)
Length of Visible Light 10h 28m
Length of Day
9h 26m
Waning Crescent, 14% of the Moon is Illuminated
Nov 29
Waning Crescent
Dec 2
New
Dec 9
First Quarter
Dec 17
Full
Dec 25
Last Quarter

Hourly Weather History & Observations

Time (CST) Temp. Windchill Dew Point Humidity Pressure Visibility Wind Dir Wind Speed Gust Speed Precip Events Conditions
12:53 AM 19.0 °F 8.2 °F 16.0 °F 88% 30.44 in 10.0 mi SSE 9.2 mph - N/A   Clear
1:53 AM 19.0 °F 10.0 °F 16.0 °F 88% 30.42 in 10.0 mi South 6.9 mph - N/A   Clear
2:53 AM 18.0 °F 7.7 °F 15.1 °F 88% 30.40 in 10.0 mi South 8.1 mph - N/A   Clear
3:53 AM 19.0 °F 6.8 °F 15.1 °F 85% 30.38 in 10.0 mi South 11.5 mph - N/A   Clear
4:53 AM 19.0 °F 5.6 °F 16.0 °F 88% 30.37 in 10.0 mi South 13.8 mph 23.0 mph N/A   Clear
5:53 AM 19.0 °F 5.6 °F 17.1 °F 92% 30.36 in 8.0 mi South 13.8 mph 23.0 mph N/A   Clear
6:53 AM 19.0 °F 6.1 °F 17.1 °F 92% 30.35 in 8.0 mi South 12.7 mph 21.9 mph N/A   Clear
7:53 AM 19.9 °F 7.3 °F 17.1 °F 89% 30.34 in 7.0 mi South 12.7 mph 23.0 mph N/A   Clear
8:53 AM 21.9 °F 11.0 °F 19.0 °F 89% 30.34 in 7.0 mi South 10.4 mph 23.0 mph N/A   Clear
9:53 AM 26.1 °F 12.3 °F 21.0 °F 81% 30.32 in 10.0 mi South 19.6 mph 33.4 mph N/A   Clear
10:53 AM 30.9 °F 21.2 °F 24.1 °F 76% 30.29 in 10.0 mi South 12.7 mph 32.2 mph N/A   Clear
11:53 AM 33.1 °F 26.1 °F 25.0 °F 72% 30.25 in 10.0 mi South 8.1 mph - N/A   Clear
12:53 PM 41.0 °F 33.5 °F 28.0 °F 60% 30.20 in 10.0 mi South 13.8 mph 25.3 mph N/A   Clear
1:53 PM 39.0 °F 31.0 °F 27.0 °F 62% 30.17 in 10.0 mi SSW 13.8 mph 28.8 mph N/A   Clear
2:53 PM 37.9 °F 32.1 °F 28.0 °F 68% 30.15 in 10.0 mi South 8.1 mph - N/A   Clear
3:53 PM 37.9 °F 33.5 °F 27.0 °F 65% 30.14 in 10.0 mi SSW 5.8 mph - N/A   Clear
4:53 PM 36.0 °F 33.3 °F 27.0 °F 70% 30.15 in 9.0 mi SSW 3.5 mph - N/A   Clear
5:53 PM 30.0 °F 26.5 °F 24.1 °F 79% 30.17 in 9.0 mi South 3.5 mph - N/A   Clear
6:53 PM 28.0 °F 24.2 °F 24.1 °F 85% 30.18 in 9.0 mi SSW 3.5 mph - N/A   Clear
7:53 PM 24.1 °F - 21.9 °F 91% 30.19 in 9.0 mi Calm Calm - N/A   Clear
8:53 PM 23.0 °F - 19.9 °F 88% 30.18 in 8.0 mi Calm Calm - N/A   Clear
9:53 PM 21.0 °F - 19.9 °F 96% 30.18 in 7.0 mi Calm Calm - N/A   Clear
10:53 PM 25.0 °F - 23.0 °F 92% 30.15 in 7.0 mi Calm Calm - N/A   Clear
11:53 PM 24.1 °F - 23.0 °F 96% 30.15 in 7.0 mi Calm Calm - N/A   Clear